User: anonymous   Login
Location: Mentone
(34.5413°N, 85.5351°W)
Time: 07:23:21
(UTC-05:00)
Language:

ATLAS 5 CENTAUR R/B - Orbit

View from above orbital plane
View from above orbital plane
View from above satellite
View from above satellite

Ground track
Ground track

The orbit data is extracted from the following two-line orbital elements,

1 31702U 07027B   19196.36168569 0.00000150  00000-0  37701-4 0    00
2 31702  63.3590 171.8603 0359203  12.2814 347.7186 14.18713093    00
Epoch (UTC): 15 July 2019 08:40:49
Eccentricity: 0.0359203
inclination: 63.3590°
perigee height: 571 km
apogee height: 1088 km
right ascension of ascending node: 171.8603°
argument of perigee: 12.2814°
revolutions per day: 14.18713093
mean anomaly at epoch: 347.7186°
orbit number at epoch: 0

The dashed part of the orbit path shows where the satellite is in the earth's shadow,  

DLR